| time (UTC) | temp C | wind direction | speed KPH | gust KPH | rain 1hr cm | rain 24hr cm | rain mn cm | humidity % | barometer mb |
| 20260506034558 | 10 | 0.0 | 0.0 | 0.00 | 0.00 | 0.00 | 83 | 1012.0 | |
| 20260506033054 | 11 | 0.0 | 0.0 | 0.00 | 0.00 | 0.00 | 81 | 1011.7 | |
| 20260506031556 | 11 | 0.0 | 0.0 | 0.00 | 0.00 | 0.00 | 81 | 1011.6 | |
| 20260506030051 | 11 | 0.0 | 0.0 | 0.00 | 0.00 | 0.00 | 82 | 1011.7 | |
| 20260506024556 | 11 | 0.0 | 0.0 | 0.00 | 0.00 | 0.00 | 81 | 1011.5 | |
| 20260506023054 | 11 | 0.0 | 0.0 | 0.00 | 0.00 | 0.00 | 81 | 1010.8 | |
| 20260506021558 | 11 | 0.0 | 0.0 | 0.00 | 0.00 | 0.00 | 81 | 1010.2 | |
| 20260506020053 | 11 | 0.0 | 0.0 | 0.00 | 0.00 | 0.00 | 80 | 1009.9 | |
| 20260506014559 | 11 | 0.0 | 0.0 | 0.00 | 0.00 | 0.00 | 80 | 1009.6 | |
| 20260506013050 | 11 | 0.0 | 0.0 | 0.00 | 0.00 | 0.00 | 80 | 1009.5 | |
| 20260506011555 | 11 | 0.0 | 0.0 | 0.00 | 0.00 | 0.00 | 80 | 1009.2 | |
| 20260506010058 | 11 | 0.0 | 0.0 | 0.00 | 0.00 | 0.00 | 79 | 1009.1 | |
| 20260506004554 | 11 | 0.0 | 0.0 | 0.00 | 0.00 | 0.00 | 80 | 1008.9 | |
| 20260506003102 | 11 | 0.0 | 0.0 | 0.00 | 0.00 | 0.00 | 80 | 1009.1 | |
| 20260506001606 | 11 | 0.0 | 0.0 | 0.00 | 0.00 | 0.00 | 80 | 1008.7 | |
| 20260506000100 | 12 | 0.0 | 0.0 | 0.00 | 0.00 | 0.00 | 79 | 1008.7 | |
| 20260505234610 | 12 | 0.0 | 0.0 | 0.00 | 0.00 | 0.00 | 80 | 1008.7 | |
| 20260505233055 | 12 | 0.0 | 0.0 | 0.00 | 0.00 | 0.00 | 81 | 1008.4 | |
| 20260505231556 | 12 | 0.0 | 0.0 | 0.00 | 0.00 | 0.00 | 82 | 1007.9 | |
| 20260505230054 | 12 | 0.0 | 0.0 | 0.00 | 0.00 | 0.00 | 83 | 1007.6 | |
| 20260505224552 | 12 | 0.0 | 0.0 | 0.00 | 0.00 | 0.00 | 83 | 1007.5 | |
| 20260505223107 | 12 | 0.0 | 0.0 | 0.00 | 0.00 | 0.00 | 82 | 1007.0 | |
| 20260505221552 | 13 | 0.0 | 0.0 | 0.00 | 0.00 | 0.00 | 83 | 1006.9 | |
| 20260505220054 | 13 | 0.0 | 0.0 | 0.00 | 0.00 | 0.00 | 81 | 1007.0 | |
| 20260505214558 | 13 | 0.0 | 0.0 | 0.00 | 0.00 | 0.00 | 81 | 1006.4 | |
| 20260505213053 | 13 | 0.0 | 0.0 | 0.00 | 0.00 | 0.00 | 83 | 1006.9 | |
| 20260505211615 | 14 | 0.0 | 0.0 | 0.00 | 0.00 | 0.00 | 82 | 1007.1 | |
| 20260505210057 | 15 | 0.0 | 0.0 | 0.00 | 0.00 | 0.00 | 82 | 1006.6 | |
| 20260505204558 | 15 | 0.0 | 0.0 | 0.00 | 0.00 | 0.00 | 82 | 1006.1 | |
| 20260505203114 | 15 | 0.0 | 0.0 | 0.00 | 0.00 | 0.00 | 81 | 1006.0 | |
| 20260505201554 | 15 | 0.0 | 0.0 | 0.00 | 0.00 | 0.00 | 82 | 1006.0 | |
| 20260505200053 | 16 | 0.0 | 0.0 | 0.00 | 0.00 | 0.00 | 80 | 1006.7 | |
| 20260505194555 | 16 | 0.0 | 0.0 | 0.00 | 0.00 | 0.00 | 81 | 1006.2 | |
| 20260505193056 | 16 | 0.0 | 0.0 | 0.00 | 0.00 | 0.00 | 80 | 1005.3 | |
| 20260505191555 | 16 | 0.0 | 0.0 | 0.00 | 0.00 | 0.00 | 80 | 1005.2 | |
| 20260505190054 | 16 | 0.0 | 0.0 | 0.00 | 0.00 | 0.00 | 82 | 1005.5 | |
| 20260505184556 | 17 | 0.0 | 0.0 | 0.00 | 0.00 | 0.00 | 76 | 1005.4 | |
| 20260505183055 | 25 | 0.0 | 0.0 | 0.00 | 0.00 | 0.00 | 78 | 1005.2 | |
| 20260505181556 | 25 | 0.0 | 0.0 | 0.00 | 0.00 | 0.00 | 79 | 1004.6 | |
| 20260505180104 | 24 | 0.0 | 0.0 | 0.00 | 0.00 | 0.00 | 78 | 1004.2 | |
| 20260505174600 | 24 | 0.0 | 0.0 | 0.00 | 0.00 | 0.00 | 78 | 1004.1 | |
| 20260505173054 | 24 | 0.0 | 0.0 | 0.00 | 0.00 | 0.00 | 78 | 1004.1 | |
| 20260505171557 | 23 | 0.0 | 0.0 | 0.00 | 0.00 | 0.00 | 80 | 1004.0 | |
| 20260505170055 | 23 | 0.0 | 0.0 | 0.00 | 0.00 | 0.00 | 79 | 1004.0 | |
| 20260505164556 | 23 | 0.0 | 0.0 | 0.00 | 0.00 | 0.00 | 79 | 1003.9 | |
| 20260505163053 | 23 | 0.0 | 0.0 | 0.00 | 0.00 | 0.00 | 80 | 1003.9 | |
| 20260505161553 | 23 | 0.0 | 0.0 | 0.00 | 0.00 | 0.00 | 80 | 1003.8 | |
| 20260505153056 | 22 | 0.0 | 0.0 | 0.00 | 0.00 | 0.00 | 81 | 1003.6 | |
| 20260505151553 | 22 | 0.0 | 0.0 | 0.00 | 0.00 | 0.00 | 83 | 1003.6 | |
| 20260505140104 | 20 | 0.0 | 0.0 | 0.00 | 0.00 | 0.00 | 84 | 1004.1 | |
| 20260505124557 | 21 | 0.0 | 0.0 | 0.00 | 0.00 | 0.00 | 83 | 1004.1 | |
| 20260505123056 | 21 | 0.0 | 0.0 | 0.00 | 0.00 | 0.00 | 82 | 1003.6 | |
| 20260505121557 | 21 | 0.0 | 0.0 | 0.00 | 0.00 | 0.00 | 82 | 1003.1 | |
| 20260505120112 | 21 | 0.0 | 0.0 | 0.00 | 0.00 | 0.00 | 82 | 1003.0 | |
| 20260505114559 | 21 | 0.0 | 0.0 | 0.00 | 0.00 | 0.00 | 82 | 1002.6 | |
| 20260505113104 | 21 | 0.0 | 0.0 | 0.00 | 0.00 | 0.00 | 82 | 1002.2 | |
| 20260505111555 | 21 | 0.0 | 0.0 | 0.00 | 0.00 | 0.00 | 82 | 1002.3 | |
| 20260505101601 | 21 | 0.0 | 0.0 | 0.00 | 0.00 | 0.00 | 81 | 1002.1 | |
| 20260505100055 | 20 | 0.0 | 0.0 | 0.00 | 0.00 | 0.00 | 81 | 1001.9 | |
| 20260505094602 | 20 | 0.0 | 0.0 | 0.00 | 0.00 | 0.00 | 81 | 1002.1 | |
| 20260505093056 | 20 | 0.0 | 0.0 | 0.00 | 0.00 | 0.00 | 80 | 1002.1 | |
| 20260505091552 | 21 | 0.0 | 0.0 | 0.00 | 0.00 | 0.00 | 80 | 1002.3 | |
| 20260505090059 | 21 | 0.0 | 0.0 | 0.00 | 0.00 | 0.00 | 78 | 1002.2 | |
| 20260505084600 | 21 | 0.0 | 0.0 | 0.00 | 0.00 | 0.00 | 78 | 1002.3 | |
| 20260505083105 | 21 | 0.0 | 0.0 | 0.00 | 0.00 | 0.00 | 77 | 1001.8 | |
| 20260505081551 | 21 | 0.0 | 0.0 | 0.00 | 0.00 | 0.00 | 76 | 1001.7 | |
| 20260505080055 | 21 | 0.0 | 0.0 | 0.00 | 0.00 | 0.00 | 76 | 1001.9 | |
| 20260505074553 | 22 | 0.0 | 0.0 | 0.00 | 0.00 | 0.00 | 75 | 1001.9 | |
| 20260505073055 | 22 | 0.0 | 0.0 | 0.00 | 0.00 | 0.00 | 75 | 1001.9 | |
| 20260505071600 | 22 | 0.0 | 0.0 | 0.00 | 0.00 | 0.00 | 75 | 1002.1 | |
| 20260505070104 | 21 | 0.0 | 0.0 | 0.00 | 0.00 | 0.00 | 75 | 1002.1 | |
| 20260505064558 | 22 | 0.0 | 0.0 | 0.00 | 0.00 | 0.00 | 74 | 1002.4 | |
| 20260505063054 | 21 | 0.0 | 0.0 | 0.00 | 0.00 | 0.00 | 74 | 1002.8 | |
| 20260505061628 | 22 | 0.0 | 0.0 | 0.00 | 0.00 | 0.00 | 73 | 1002.9 | |
| 20260505060059 | 22 | 0.0 | 0.0 | 0.00 | 0.00 | 0.00 | 73 | 1003.3 | |
| 20260505054557 | 21 | 0.0 | 0.0 | 0.00 | 0.00 | 0.00 | 72 | 1003.5 | |
| 20260505053059 | 21 | 0.0 | 0.0 | 0.00 | 0.00 | 0.00 | 72 | 1003.4 | |
| 20260505051551 | 21 | 0.0 | 0.0 | 0.00 | 0.00 | 0.00 | 71 | 1003.4 | |
| 20260505041556 | 21 | 0.0 | 0.0 | 0.00 | 0.00 | 0.00 | 69 | 1004.2 |